Regional Weather Roundup
Issued by NWS

Home | Current Version | Previous Version | Graphics & Text | Print | Product List | Glossary On
Versions: 1 2 3 4 5 6 7 8 9 10 11 12 13 14 15 16 17 18 19 20 21 22 23 24 25 26 27 28 29 30 31 32 33 34 35 36 37 38 39 40 41 42 43 44 45 46 47 48 49 50
000
ASUS43 KOAX 191410
RWRNE

WEATHER ROUNDUP FOR NEBRASKA
NATIONAL WEATHER SERVICE OMAHA NE
800 AM CST SUN FEB 19 2017

NOTES: SATELLITE DATA IS BEING USED TO AUGMENT CLOUD COVER ABOVE
       12000 FEET.
       "FAIR" INDICATES FEW OR NO CLOUDS BELOW 12,000 FEET WITH NO
       SIGNIFICANT WEATHER AND/OR OBSTRUCTIONS TO VISIBILITY.

  * THESE STATIONS DO NOT REPORT WEATHER SUCH AS RAIN...SNOW OR FOG.

NEZ001>004-019>022-054>056-191500-
NEBRASKA PANHANDLE

CITY           SKY/WX    TMP DP  RH WIND       PRES   REMARKS
SCOTTSBLUFF    CLOUDY    29  24  82 NE3       29.66R
ALLIANCE       CLOUDY    25  23  92 S6        29.64S WCI  18
CHADRON        CLEAR     34  28  79 W3        29.60S
KIMBALL        CLOUDY    31  27  87 W5        29.68S WCI  26
SIDNEY         CLOUDY    28  21  75 NW5       29.67R WCI  23
$$

NEZ057>060-069>072-079>082-191500-
SOUTHWEST NEBRASKA

CITY           SKY/WX    TMP DP  RH WIND       PRES   REMARKS
NORTH PLATTE   PTCLDY    47  38  71 S13       29.71R
IMPERIAL       CLOUDY    45  35  68 S12       29.68R
LEXINGTON      CLOUDY    45  42  89 S12       29.76R
MCCOOK         CLOUDY    47  43  86 SW5       29.74R
OGALLALA       CLOUDY    43  34  70 S9        29.68S
$$

NEZ005>010-023>029-035>040-094-191500-
NORTH CENTRAL NEBRASKA

CITY           SKY/WX    TMP DP  RH WIND       PRES   REMARKS
VALENTINE      CLOUDY    41  33  73 S7        29.65S
AINSWORTH      CLOUDY    43  37  77 S9        29.66S
BROKEN BOW     CLEAR     42  40  92 S9        29.74R
O`NEILL        CLOUDY    43  39  86 S12       29.72R
ORD            PTCLDY    39  36  89 SE5       29.75R
THEDFORD       CLOUDY    46  37  72 S13       29.68R
$$

NEZ041-046>049-061>064-073>077-083>087-191500-
SOUTH CENTRAL NEBRASKA

CITY           SKY/WX    TMP DP  RH WIND       PRES   REMARKS
GRAND ISLAND   PTCLDY    45  44  97 S12       29.79F FOG
AURORA         PTCLDY    46  44  93 S10       29.81F FOG
HASTINGS       CLOUDY    46  44  93 S8        29.81F FOG
HEBRON         PTCLDY    46  44  95 S7        29.87R FOG
HOLDREGE       PTCLDY    44  43  97 S14       29.78R FOG
KEARNEY *      CLOUDY    45  41  87 S7        29.80R
YORK           PTCLDY    45  45 100 S9        29.84S
$$

NEZ011>018-030>034-042>045-191500-
NORTHEAST NEBRASKA

CITY           SKY/WX    TMP DP  RH WIND       PRES   REMARKS
NORFOLK        PTCLDY    45  41  86 S10       29.80S
ALBION         PTCLDY    41  38  89 SE9       29.78F FOG
BLAIR          PTCLDY    46  41  82 SE7       29.87S
FREMONT        PTCLDY    42  39  89 SE5       29.87R
TEKAMAH        MOCLDY    38  34  85 SE10      29.88R WCI  31
WAYNE          PTCLDY    38  35  90 S8        29.83R WCI  32
$$

NEZ050>053-065>068-078-088>093-191500-
SOUTHEAST NEBRASKA

CITY           SKY/WX    TMP DP  RH WIND       PRES   REMARKS
LINCOLN        MOCLDY    44  42  93 S5        29.89R FOG
OMAHA EPPLEY   MOCLDY    46  39  76 S7        29.89R
BEATRICE       MOCLDY    47  45  95 S6        29.89R
FALLS CITY     FOG       44  44 100 SE5       29.94R VSB 1
NEBRASKA CITY  CLOUDY    44  43  98 S8        29.91R FOG
PLATTSMOUTH    PTCLDY    45  40  82 SE7       29.90R
$$

NEZ044-045-051>053-067-191500-
OMAHA AREA

CITY           SKY/WX    TMP DP  RH WIND       PRES   REMARKS
OMAHA EPPLEY   MOCLDY    46  39  76 S7        29.89R
BLAIR          PTCLDY    46  41  82 SE7       29.87S
FREMONT        PTCLDY    42  39  89 SE5       29.87R
MILLARD        PTCLDY    41  37  84 SE3       29.90R
OFFUTT AFB     MOCLDY    44  44 100 S8        29.90R
PLATTSMOUTH    PTCLDY    45  40  82 SE7       29.90R
WAHOO          FAIR      41  38  91 SE7       29.87R
$$




USA.gov is the U.S. government's official web portal to all federal, state and local government web resources and services.